FW3157 Weather Reports


time (UTC)temp
F
wind
direction
speed
knots
gust
knots
rain 1hr
in
rain 24hr
in
rain mn
in
humidity
%
barometer
mb
20260505230448 63 272 0.0 0.0 0.00 0.00 0.00 60 1015.0
20260505225948 63 272 0.0 0.0 0.00 0.00 0.00 60 1014.9
20260505225448 63 272 0.0 0.0 0.00 0.00 0.00 61 1014.9
20260505224949 63 272 0.0 0.0 0.00 0.00 0.00 61 1015.0
20260505224444 63 272 0.0 0.0 0.00 0.00 0.00 64 1015.0
20260505223945 63 272 0.0 0.0 0.00 0.00 0.00 67 1015.1
20260505223922 64 272 0.0 0.0 0.00 0.00 0.00 69 1015.1
20260505222940 63 272 0.0 0.0 0.00 0.00 0.00 71 1015.1
20260505222438 63 272 0.0 0.0 0.00 0.00 0.00 71 1015.1
20260505221936 63 272 0.0 0.0 0.00 0.00 0.00 71 1015.0
20260505221435 63 272 0.0 0.0 0.00 0.00 0.00 71 1015.0
20260505220932 63 272 0.0 0.0 0.00 0.00 0.00 71 1015.0
20260505220432 64 272 0.0 0.0 0.00 0.00 0.00 72 1015.0
20260505215933 64 272 0.0 0.9 0.00 0.00 0.00 72 1014.9
20260505215433 64 272 0.9 2.6 0.00 0.00 0.00 72 1014.9
20260505214932 64 272 0.9 2.6 0.00 0.00 0.00 72 1014.9
20260505214430 64 272 0.9 2.6 0.00 0.00 0.00 72 1014.9
20260505213928 64 272 1.7 5.2 0.00 0.00 0.00 71 1014.9
20260505213428 65 272 1.7 5.2 0.00 0.00 0.00 71 1014.8
20260505212928 65 294 2.6 6.1 0.00 0.00 0.00 69 1014.8
20260505212426 65 295 3.5 7.0 0.00 0.00 0.00 68 1014.8
20260505211925 65 300 3.5 7.0 0.00 0.00 0.00 66 1014.8
20260505211652 66 278 3.5 7.0 0.00 0.00 0.00 64 1014.8
20260505210917 66 299 2.6 7.0 0.00 0.00 0.00 62 1014.7
20260505210420 66 313 1.7 5.2 0.00 0.00 0.00 61 1014.7
20260505205915 66 37 2.6 5.2 0.00 0.00 0.00 59 1014.6
20260505205633 67 70 1.7 5.2 0.00 0.00 0.00 58 1014.6
20260505204915 67 75 1.7 4.3 0.00 0.00 0.00 55 1014.6
20260505204416 68 99 1.7 4.3 0.00 0.00 0.00 50 1014.5
20260505203914 68 89 1.7 6.1 0.00 0.00 0.00 43 1014.5
20260505203906 69 89 3.5 7.8 0.00 0.00 0.00 40 1014.4
20260505203139 69 87 3.5 7.8 0.00 0.00 0.00 40 1014.4
20260505202416 68 113 3.5 7.0 0.00 0.00 0.00 41 1014.3
20260505201915 68 107 3.5 6.1 0.00 0.00 0.00 42 1014.3
20260505201416 68 93 2.6 5.2 0.00 0.00 0.00 42 1014.3
20260505200913 68 76 1.7 5.2 0.00 0.00 0.00 43 1014.2
20260505200412 68 107 2.6 7.0 0.00 0.00 0.00 43 1014.2
20260505195912 68 101 3.5 7.0 0.00 0.00 0.00 43 1014.2
20260505195411 68 103 3.5 6.1 0.00 0.00 0.00 43 1014.1
20260505194910 69 117 3.5 7.8 0.00 0.00 0.00 43 1014.0
20260505194411 69 105 4.3 8.7 0.00 0.00 0.00 43 1013.8
20260505193909 69 108 4.3 9.6 0.00 0.00 0.00 42 1013.8
20260505193408 69 150 4.3 10.4 0.00 0.00 0.00 42 1013.8
20260505192909 69 108 5.2 12.2 0.00 0.00 0.00 43 1013.7
20260505192623 69 131 6.1 12.2 0.00 0.00 0.00 43 1013.7
20260505191907 69 179 6.1 12.2 0.00 0.00 0.00 44 1013.7
20260505191627 69 158 6.1 12.2 0.00 0.00 0.00 44 1013.7
20260505190906 69 71 6.1 12.2 0.00 0.00 0.00 44 1013.6
20260505190631 69 143 5.2 12.2 0.00 0.00 0.00 45 1013.6
20260505185904 69 100 5.2 11.3 0.00 0.00 0.00 45 1013.6
20260505185402 69 81 5.2 13.0 0.00 0.00 0.00 45 1013.5
20260505184900 69 109 6.1 11.3 0.00 0.00 0.00 45 1013.5
20260505184621 69 111 6.1 11.3 0.00 0.00 0.00 46 1013.4
20260505183900 69 101 6.1 11.3 0.00 0.00 0.00 46 1013.4
20260505183628 70 101 5.2 11.3 0.00 0.00 0.00 45 1013.4
20260505182858 70 156 3.5 11.3 0.00 0.00 0.00 44 1013.3
20260505182358 71 116 3.5 7.8 0.00 0.00 0.00 42 1013.4
20260505181857 71 117 4.3 8.7 0.00 0.00 0.00 41 1013.2
20260505181356 71 91 4.3 8.7 0.00 0.00 0.00 40 1013.2
20260505180907 71 108 3.5 8.7 0.00 0.00 0.00 40 1013.1
20260505180356 72 96 3.5 8.7 0.00 0.00 0.00 39 1013.1
20260505175857 72 134 3.5 8.7 0.00 0.00 0.00 38 1013.0
20260505175625 72 123 4.3 8.7 0.00 0.00 0.00 39 1013.1
20260505174857 72 184 5.2 8.7 0.00 0.00 0.00 39 1013.0
20260505174356 73 93 5.2 8.7 0.00 0.00 0.00 39 1013.0
20260505173850 73 96 5.2 10.4 0.00 0.00 0.00 39 1013.0
20260505173344 73 108 4.3 10.4 0.00 0.00 0.00 39 1013.0
20260505172837 73 100 3.5 7.8 0.00 0.00 0.00 39 1012.9
20260505172331 74 108 4.3 7.8 0.00 0.00 0.00 37 1012.9
20260505171826 74 111 4.3 7.8 0.00 0.00 0.00 36 1012.9
20260505171542 74 120 3.5 7.8 0.00 0.00 0.00 36 1012.9
20260505170814 74 144 2.6 7.8 0.00 0.00 0.00 37 1012.9
20260505170308 74 79 2.6 9.6 0.00 0.00 0.00 36 1012.9
20260505165802 75 112 2.6 9.6 0.00 0.00 0.00 36 1012.9
20260505165256 75 144 3.5 10.4 0.00 0.00 0.00 37 1012.9
20260505164750 76 203 3.5 10.4 0.00 0.00 0.00 38 1013.0
20260505164244 76 126 3.5 9.6 0.00 0.00 0.00 37 1013.0
20260505164007 77 78 3.5 7.8 0.00 0.00 0.00 36 1013.0
20260505163231 77 143 2.6 7.8 0.00 0.00 0.00 35 1013.0
20260505162726 78 140 2.6 7.8 0.00 0.00 0.00 35 1013.0
20260505162219 78 198 3.5 7.8 0.00 0.00 0.00 34 1012.9
20260505161714 77 159 3.5 8.7 0.00 0.00 0.00 35 1012.9
20260505161207 78 120 4.3 9.6 0.00 0.00 0.00 36 1013.0
20260505160703 78 153 4.3 10.4 0.00 0.00 0.00 36 1013.0
20260505160156 78 235 4.3 10.4 0.00 0.00 0.00 35 1013.0
20260505153120 80 217 3.5 8.7 0.00 0.00 0.00 33 1013.1
20260505152613 80 210 3.5 8.7 0.00 0.00 0.00 31 1013.1
20260505152107 80 161 3.5 7.8 0.00 0.00 0.00 31 1013.1
20260505151601 81 209 3.5 8.7 0.00 0.00 0.00 30 1013.1
20260505151545 81 193 3.5 8.7 0.00 0.00 0.00 30 1013.1
20260505150550 81 285 3.5 8.7 0.00 0.00 0.00 30 1013.1
20260505140512 80 152 4.3 9.6 0.00 0.00 0.00 30 1013.4
20260505130214 80 165 4.3 9.6 0.00 0.00 0.00 32 1013.8
20260505124951 80 219 3.5 7.0 0.00 0.00 0.00 31 1013.9
20260505124936 80 190 3.5 6.1 0.00 0.00 0.00 31 1014.0
20260505123952 80 217 3.5 7.8 0.00 0.00 0.00 31 1014.0
20260505123450 80 208 3.5 7.8 0.00 0.00 0.00 32 1014.1
20260505122950 81 222 2.6 7.8 0.00 0.00 0.00 35 1014.1
20260505122450 81 168 2.6 7.0 0.00 0.00 0.00 35 1014.1
20260505121950 80 221 3.5 8.7 0.00 0.00 0.00 34 1014.2
20260505121449 80 216 2.6 8.7 0.00 0.00 0.00 33 1014.2
20260505120950 80 224 2.6 9.6 0.00 0.00 0.00 36 1014.3
20260505120449 79 148 4.3 9.6 0.00 0.00 0.00 38 1014.4
20260505115950 79 214 3.5 9.6 0.00 0.00 0.00 36 1014.5
20260505115713 79 250 2.6 8.7 0.00 0.00 0.00 34 1014.5
20260505114950 80 238 2.6 6.1 0.00 0.00 0.00 34 1014.6
20260505114714 79 224 2.6 6.1 0.00 0.00 0.00 33 1014.6
20260505113948 79 58 3.5 7.0 0.00 0.00 0.00 33 1014.7
20260505113449 79 215 3.5 7.0 0.00 0.00 0.00 32 1014.7
20260505112947 79 218 2.6 6.1 0.00 0.00 0.00 32 1014.8
20260505112448 79 240 2.6 6.1 0.00 0.00 0.00 32 1014.8
20260505112210 79 214 2.6 6.1 0.00 0.00 0.00 32 1014.9
20260505111448 79 252 3.5 7.0 0.00 0.00 0.00 30 1014.9
20260505111209 78 283 4.3 7.0 0.00 0.00 0.00 28 1014.9
20260505110936 78 265 3.5 6.1 0.00 0.00 0.00 27 1014.9
20260505102211 76 197 2.6 4.3 0.00 0.00 0.00 35 1015.3
20260505101441 76 210 2.6 5.2 0.00 0.00 0.00 35 1015.3
20260505100935 76 221 1.7 5.2 0.00 0.00 0.00 35 1015.4
20260505100429 76 212 1.7 4.3 0.00 0.00 0.00 37 1015.5
20260505095929 76 238 1.7 5.2 0.00 0.00 0.00 37 1015.5
20260505095428 76 248 2.6 6.1 0.00 0.00 0.00 37 1015.5
20260505094926 75 246 2.6 6.1 0.00 0.00 0.00 38 1015.6
20260505094425 75 241 3.5 6.1 0.00 0.00 0.00 38 1015.6
20260505094151 75 316 2.6 6.1 0.00 0.00 0.00 35 1015.6
20260505093426 75 250 1.7 4.3 0.00 0.00 0.00 36 1015.7
20260505092923 74 184 2.6 5.2 0.00 0.00 0.00 37 1015.7
20260505092648 74 249 2.6 6.1 0.00 0.00 0.00 38 1015.8
20260505091924 74 206 2.6 6.1 0.00 0.00 0.00 38 1015.9
20260505091421 73 246 3.5 6.1 0.00 0.00 0.00 38 1015.9
20260505090919 73 285 3.5 6.1 0.00 0.00 0.00 37 1015.9
20260505090420 73 295 2.6 5.2 0.00 0.00 0.00 38 1016.0
20260505085919 72 293 1.7 5.2 0.00 0.00 0.00 38 1016.1
20260505085609 71 252 3.5 6.1 0.00 0.00 0.00 42 1016.1
20260505085452 72 251 2.6 5.2 0.00 0.00 0.00 40 1016.1
20260505085237 71 246 3.5 5.2 0.00 0.00 0.00 40 1016.1
20260505083919 71 259 2.6 6.1 0.00 0.00 0.00 43 1016.2
20260505083417 71 261 1.7 4.3 0.00 0.00 0.00 44 1016.2
20260505083137 70 262 2.6 4.3 0.00 0.00 0.00 45 1016.3
20260505082405 70 287 2.6 5.2 0.00 0.00 0.00 45 1016.3
20260505081859 69 263 2.6 5.2 0.00 0.00 0.00 45 1016.4
20260505081619 69 267 1.7 5.2 0.00 0.00 0.00 45 1016.4
20260505081336 69 281 1.7 4.3 0.00 0.00 0.00 45 1016.4
20260505080340 69 277 2.6 5.2 0.00 0.00 0.00 46 1016.4
20260505075834 68 292 2.6 6.1 0.00 0.00 0.00 46 1016.5
20260505075328 68 260 2.6 6.1 0.00 0.00 0.00 46 1016.5
20260505074823 68 297 2.6 5.2 0.00 0.00 0.00 46 1016.5
20260505074543 68 280 1.7 5.2 0.00 0.00 0.00 46 1016.5
20260505073811 67 278 1.7 5.2 0.00 0.00 0.00 46 1016.6
20260505073305 67 266 1.7 3.5 0.00 0.00 0.00 48 1016.6
20260505072758 66 255 1.7 3.5 0.00 0.00 0.00 50 1016.6
20260505072254 66 250 1.7 3.5 0.00 0.00 0.00 51 1016.6
20260505072009 66 266 1.7 3.5 0.00 0.00 0.00 53 1016.7
20260505071241 65 270 1.7 4.3 0.00 0.00 0.00 52 1016.7
20260505070959 65 252 1.7 4.3 0.00 0.00 0.00 53 1016.7
20260505070228 65 264 1.7 3.5 0.00 0.00 0.00 52 1016.7
20260505065723 65 275 1.7 3.5 0.00 0.00 0.00 52 1016.7
20260505065217 65 298 0.9 3.5 0.00 0.00 0.00 53 1016.9
20260505064936 64 300 0.9 2.6 0.00 0.00 0.00 55 1016.7
20260505064204 63 300 1.7 2.6 0.00 0.00 0.00 56 1016.9
20260505063659 63 285 1.7 3.5 0.00 0.00 0.00 57 1016.7
20260505063153 63 293 1.7 4.3 0.00 0.00 0.00 58 1016.9
20260505062647 62 305 1.7 4.3 0.00 0.00 0.00 55 1016.9
20260505062141 62 282 1.7 3.5 0.00 0.00 0.00 59 1016.7
20260505061904 62 267 0.9 2.6 0.00 0.00 0.00 63 1016.9
20260505061129 62 267 0.9 2.6 0.00 0.00 0.00 63 1016.7
20260505060623 62 267 0.9 2.6 0.00 0.00 0.00 64 1016.7
20260505060346 62 267 0.9 2.6 0.00 0.00 0.00 65 1016.7
20260505055611 62 266 0.9 1.7 0.00 0.00 0.00 64 1016.7
20260505055105 62 266 0.0 1.7 0.00 0.00 0.00 64 1016.7
20260505054558 61 266 0.0 0.9 0.00 0.00 0.00 67 1016.6
20260505054052 61 266 0.0 0.9 0.00 0.00 0.00 66 1016.6
20260505053547 61 266 0.0 2.6 0.00 0.00 0.00 67 1016.6
20260505053533 60 266 0.9 2.6 0.00 0.00 0.00 66 1016.6
20260505052539 60 266 0.0 1.7 0.00 0.00 0.00 65 1016.6
20260505052304 60 266 0.9 2.6 0.00 0.00 0.00 65 1016.6
20260505051537 60 266 0.9 2.6 0.00 0.00 0.00 64 1016.5
20260505051037 61 266 0.0 1.7 0.00 0.00 0.00 60 1016.6
20260505050536 61 266 0.0 0.0 0.00 0.00 0.00 61 1016.6
20260505041533 56 266 0.0 0.0 0.00 0.00 0.00 65 1016.5
20260505041031 55 266 0.0 0.0 0.00 0.00 0.00 64 1016.5
20260505040531 55 266 0.0 0.0 0.00 0.00 0.00 64 1016.5
20260505040031 55 266 0.0 0.0 0.00 0.00 0.00 64 1016.5
20260505040015 55 266 0.0 0.0 0.00 0.00 0.00 64 1016.5
20260505035019 55 266 0.0 0.0 0.00 0.00 0.00 65 1016.5
20260505034512 55 266 0.0 0.0 0.00 0.00 0.00 66 1016.5
20260505034228 55 266 0.0 0.0 0.00 0.00 0.00 66 1016.4
20260505033501 55 266 0.0 0.0 0.00 0.00 0.00 66 1016.4
20260505032955 55 266 0.0 0.0 0.00 0.00 0.00 66 1016.4
20260505032450 55 266 0.0 0.0 0.00 0.00 0.00 66 1016.4
20260505032423 56 266 0.0 0.9 0.00 0.00 0.00 67 1016.3
20260505031437 55 266 0.9 1.7 0.00 0.00 0.00 67 1016.3
20260505030940 55 266 0.9 1.7 0.00 0.00 0.00 67 1016.3
20260505030658 55 266 0.0 1.7 0.00 0.00 0.00 67 1016.3
20260505030156 55 266 0.0 0.0 0.00 0.00 0.00 67 1016.4
20260505025434 56 266 0.0 0.0 0.00 0.00 0.00 68 1016.4
20260505024933 56 266 0.0 0.0 0.00 0.00 0.00 68 1016.4
20260505024654 56 266 0.0 0.9 0.00 0.00 0.00 69 1016.4
20260505023930 56 267 0.0 1.7 0.00 0.00 0.00 69 1016.5
20260505023430 56 266 0.0 1.7 0.00 0.00 0.00 70 1016.5
20260505022931 56 266 0.0 1.7 0.00 0.00 0.00 69 1016.6
20260505022429 56 266 0.9 1.7 0.00 0.00 0.00 69 1016.6
20260505021926 56 266 0.0 1.7 0.00 0.00 0.00 69 1016.6
20260505021426 56 267 0.9 2.6 0.00 0.00 0.00 68 1016.6
20260505020925 56 266 0.9 2.6 0.00 0.00 0.00 66 1016.7
20260505020642 56 101 0.0 0.0 0.00 0.00 0.00 63 1016.6
20260505015923 56 101 0.0 0.0 0.00 0.00 0.00 65 1016.5
20260505015423 56 101 0.0 0.0 0.00 0.00 0.00 64 1016.6
20260505014919 56 101 0.0 0.9 0.00 0.00 0.00 63 1016.5
20260505014418 56 101 0.0 0.9 0.00 0.00 0.00 64 1016.5
20260505013919 56 101 0.0 0.0 0.00 0.00 0.00 63 1016.5
20260505013418 56 101 0.0 0.0 0.00 0.00 0.00 63 1016.6
20260505012918 56 101 0.0 0.9 0.00 0.00 0.00 63 1016.6
20260505012419 56 101 0.0 0.9 0.00 0.00 0.00 63 1016.6
20260505011918 56 101 0.0 0.9 0.00 0.00 0.00 63 1016.7
20260505011419 56 101 0.0 0.9 0.00 0.00 0.00 63 1016.9
20260505010919 56 101 0.0 1.7 0.00 0.00 0.00 63 1016.7
20260505010415 56 101 0.0 1.7 0.00 0.00 0.00 63 1016.7
20260505005914 56 101 0.0 1.7 0.00 0.00 0.00 62 1016.7
20260505005415 56 101 0.0 0.0 0.00 0.00 0.00 62 1016.9
20260505004915 56 101 0.0 0.0 0.00 0.00 0.00 62 1016.9
20260505004414 56 101 0.0 0.0 0.00 0.00 0.00 62 1016.7
20260505004141 56 101 0.0 0.0 0.00 0.00 0.00 61 1016.7
20260505003415 56 101 0.0 0.0 0.00 0.00 0.00 61 1016.9
20260505003139 56 101 0.0 0.0 0.00 0.00 0.00 62 1016.9
20260505002414 56 101 0.0 0.0 0.00 0.00 0.00 62 1016.9
20260505001908 56 101 0.0 0.0 0.00 0.00 0.00 63 1016.9
20260505001402 56 101 0.0 0.0 0.00 0.00 0.00 64 1016.9
20260505000856 57 101 0.0 0.0 0.00 0.00 0.00 63 1016.7
20260505000351 57 101 0.0 0.0 0.00 0.00 0.00 62 1016.9
20260504235844 57 101 0.0 0.0 0.00 0.00 0.00 62 1016.9
20260504235338 57 101 0.0 0.0 0.00 0.00 0.00 62 1016.7
20260504234831 57 101 0.0 0.0 0.00 0.00 0.00 61 1016.9
20260504234326 57 101 0.0 0.0 0.00 0.00 0.00 59 1016.9
20260504233821 58 101 0.0 0.0 0.00 0.00 0.00 59 1017.0
20260504233313 58 101 0.0 0.0 0.00 0.00 0.00 59 1017.0
20260504232807 58 101 0.0 0.0 0.00 0.00 0.00 58 1017.0
20260504232529 58 101 0.0 0.0 0.00 0.00 0.00 59 1017.1
20260504231756 58 101 0.0 0.0 0.00 0.00 0.00 60 1017.1
20260504231250 57 101 0.0 0.0 0.00 0.00 0.00 59 1017.1